EHI
0 0 0 0 0 0 0 0 0 0 0 0 0 0 0 0 0 0 0 0 0 0 0 0 0 0 0 0 0 0 0 0 0 0 0 0 0 0 0 0 0 0 0 0 0 0 0 0 0
0 0 0 0 0 0 0 0 0 0 0 0 0 0 0 0 0 0 0 0 0 0 0 0 0 0 0 0 0 0 0 0 0 0 0 0 0 0 0 0 0 0 0 0 0 0 0 0 0
0 0 0 0 0 0 0 0 0 0 0 0 0 0 0 0 0 0 0 0 0 0 0 0 0 0 0 0 0 0 0 0 0 0 0 0 0 0 0 0 0 0 0 0 0 0 0 0 0
0 0 0 0 0 0 0 0 0 0 0 0 0 0 0 0 0 0 0 0 0 0 0 0 0 0 0 0 0 0 0 0 0 0 0 0 0 0 0 0 0 0 0 0 0 0 0 0 0
0 0 0 0 0 0 0 0 0 0 0 0 0 0 0 0 0 0 0 0 0 0 0 0 0 0 0 0 0 0 0 0 0 0 0 0 0 0 0 0 0 0 0 0 0 0 0 0 0
0 0 0 0 0 0 0 0 0 0 0 0 0 0 0 0 0 0 0 0 0 0 0 0 0 0 0 0 0 0 0 0 0 0 0 0 0 0 0 0 0 0 0 0 0 0 0 0 0
0 0 0 0 0 0 0 0 0 0 0 0 0 0 0 0 0 0 0 0 0 0 0 0 0 0 0 0 0 0 0 0 0 0 0 0 0 0 0 0 0 0 0 0 0 0 0 0 0
0 0 0 0 0 0 0 0 0 0 0 0 0 0 0 0 0 0 0 0 0 0 0 0 0 0 0 0 0 0 0 0 0 0 0 0 0 0 0 0 0 0 0 0 0 0 0 0 0
0 0 0 0 0 0 0 0 0 0 0 0 0 0 0 0 0 0 0 0 0 0 0 0 0 0 0 0 0 0 0 0 0 0 0 0 0 0 0 0 0 0 0 0 0 0 0 0 0
0 0 0 0 0 0 0 0 0 0 0 0 0 0 0 0 0 0 0 0 0 0 0 0 0 0 0 0 0 0 0 0 0 0 0 0 0 0 0 0 0 0 0 0 0 0 0 0 0
0 0 0 0 0 0 0 0 0 0 0 0 0 0 0 0 0 0 0 0 0 0 0 0 0 0 0 0 0 0 0 0 0 0 0 0 0 0 0 0 0 0 0 0 0 0 0 0 0
0 0 0 0 0 0 0 0 0 0 0 0 0 0 0 0 0 0 0 0 0 0 0 0 0 0 0 0 0 0 0 0 0 0 0 0 0 0 0 0 0 0 0 0 0 0 0 0 0
0 0 0 0 0 0 0 0 0 0 0 0 0 0 0 0 0 0 0 0 0 0 0 0 0 0 0 0 0 0 0 0 0 0 0 0 0 0 0 0 0 0 0 0 0 0 0 0 0
0 0 0 0 0 0 0 0 0 0 0 0 0 0 0 0 0 0 0 0 0 0 0 0 0 0 0 0 0 0 0 0 0 0 0 0 0 0 0 0 0 0 0 0 0 0 0 0 0
0 0 0 0 0 0 0 0 0 0 0 0 0 0 0 0 0 0 0 0 0 0 0 0 0 0 0 0 0 0 0 0 0 0 0 0 0 0 0 0 0 0 0 0 0 0 0 0 0
0 0 0 0 0 0 0 0 0 0 0 0 0 0 0 0 0 0 0 0 0 0 0 0 0 0 0 0 0 0 0 0 0 0 0 0 0 0 0 0 0 0 0 0 0 0 0 0 0
0 0 0 0 0 0 0 0 0 0 0 0 0 0 0 0 0 0 0 0 0 0 0 0 0 0 0 0 0 0 0 0 0 0 0 0 0 0 0 0 0 0 0 0 0 0 0 0 0
0 0 0 0 0 0 0 0 0 0 0 0 0 0 0 0 0 0 0 0 0 0 0 0 0 0 0 0 0 0 0 0 0 0 0 0 0 0 0 0 0 0 0 0 0 0 0 0 0
0 0 0 0 0 0 0 0 0 0 0 0 0 0 0 0 0 0 0 0 0 0 0 0 0 0 0 0 0 0 0 0 0 0 0 0 0 0 0 0 0 0 0 0 0 0 0 0 0
0 0 0 0 0 0 0 0 0 0 0 0 0 0 0 0 0 0 0 0 0 0 0 0 0 0 0 0 0 0 0 0 0 0 0 0 0 0 0 0 0 0 0 0 0 0 0 0 0
0 0 0 0 0 0 0 0 0 0 0 0 0 0 0 0 0 0 0 0 0 0 0 0 0 0 0 0 0 0 0 0 0 0 0 0 0 0 0 0 0 0 0 0 0 0 0 0 0
0 0 0 0 0 0 0 0 0 0 0 0 0 0 0 0 0 0 0 0 0 0 0 0 0 0 0 0 0 0 0 0 0 0 0 0 0 0 0 0 0 0 0 0 0 0 0 0 0
0 0 0 0 0 0 0 0 0 0 0 0 0 0 0 0 0 0 0 0 0 0 0 0 0 0 0 0 0 0 0 0 0 0 0 0 0 0 0 0 0 0 0 0 0 0 0 0 0
0 0 0 0 0 0 0 0 0 0 0 0 0 0 0 0 0 0 0 0 0 0 0 0 0 0 0 0 0 0 0 0 0 0 0 0 0 0 0 0 0 0 0 0 0 0 0 0 0
0 0 0 0 0 0 0 0 0 0 0 0 0 0 0 0 0 0 0 0 0 0 0 0 0 0 0 0 0 0 0 0 0 0 0 0 0 0 0 0 0 0 0 0 0 0 0 0 0
0 0 0 0 0 0 0 0 0 0 0 0 0 0 0 0 0 0 0 0 0 0 0 0 0 0 0 0 0 0 0 0 0 0 0 0 0 0 0 0 0 0 0 0 0 0 0 0 0
0 0 0 0 0 0 0 0 0 0 0 0 0 0 0 0 0 0 0 0 0 0 0 0 0 0 0 0 0 0 0 0 0 0 0 0 0 0 0 0 0 0 0 0 0 0 0 0 0
0 0 0 0 0 0 0 0 0 0 0 0 0 0 0 0 0 0 0 0 0 0 0 0 0 0 0 0 0 0 0 0 0 0 0 0 0 0 0 0 0 0 0 0 0 0 0 0 0
0 0 0 0 0 0 0 0 0 0 0 0 0 0 0 0 0 0 0 0 0 0 0 0 0 0 0 0 0 0 0 0 0 0 0 0 0 0 0 0 0 0 0 0 0 0 0 0 0
0 0 0 0 0 0 0 0 0 0 0 0 0 0 0 0 0 0 0 0 0 0 0 0 0 0 0 0 0 0 0 0 0 0 0 0 0 0 0 0 0 0 0 0 0 0 0 0 0
Wind_Speed
5 4 4 6 11 12 6 4 2 4 5 2 3 7 8 6 6 6 1 9 11 12 14 17 25 25 25 26 26 26 26 26 26 26 27 27 27 27 26 27 27 27 26 26 26 26 25 25 25
3 5 8 9 10 7 4 4 4 3 6 5 4 5 7 6 4 5 5 9 10 11 13 16 24 25 25 26 26 26 26 26 26 26 26 26 27 27 27 27 27 27 26 26 26 26 25 25 25
5 9 10 10 9 5 4 1 4 5 5 3 4 5 5 5 4 4 5 6 7 9 12 17 25 25 25 26 26 26 27 27 26 26 26 26 26 27 26 27 27 27 27 26 26 26 26 26 25
6 9 10 12 10 3 2 2 3 6 4 5 5 6 5 6 4 4 4 5 6 9 11 17 26 26 25 26 26 26 26 26 26 26 26 26 26 26 26 26 27 27 27 26 26 26 26 26 26
7 8 12 9 5 2 2 2 2 3 3 4 5 6 4 3 5 4 3 5 7 8 10 15 25 25 25 25 26 26 26 26 26 26 26 26 26 26 26 26 26 26 26 26 26 26 26 26 26
8 8 10 6 5 3 1 2 3 5 4 5 6 5 3 2 2 3 3 5 7 8 9 13 23 25 25 25 25 26 25 26 25 26 26 26 27 27 26 27 27 26 26 25 26 26 27 26 26
8 9 8 8 6 4 3 3 4 4 4 3 5 6 4 2 1 2 4 4 6 7 10 11 12 16 22 24 25 25 25 25 25 25 26 26 27 27 27 27 27 26 26 25 26 26 26 26 26
7 9 7 5 6 5 4 4 3 3 4 2 4 8 6 4 3 2 3 4 5 7 9 10 10 11 11 12 21 24 23 24 24 24 25 25 25 24 26 25 26 26 26 25 26 26 26 26 25
6 9 5 5 7 6 5 5 3 3 5 4 3 4 5 6 3 1 1 5 7 9 8 9 10 10 11 10 15 17 18 20 20 18 23 20 11 11 14 22 25 26 26 26 26 26 26 25 23
8 7 4 1 5 7 5 5 7 5 5 4 4 4 5 4 2 2 7 9 10 10 8 8 8 8 8 9 7 6 8 9 9 9 10 9 9 10 15 21 23 24 25 25 25 26 23 18 12
9 7 4 4 5 7 6 5 5 9 4 6 8 8 5 4 3 6 7 6 6 5 7 7 7 7 7 6 6 5 5 5 7 9 10 9 7 7 8 7 10 12 16 12 16 15 11 11 11
9 6 5 4 4 6 6 5 4 2 4 7 9 8 6 5 5 6 5 5 4 6 6 5 6 6 6 6 5 4 5 5 6 7 9 8 6 7 8 7 8 7 7 9 10 9 12 12 13
7 5 4 7 10 7 7 5 5 2 5 8 7 7 6 6 5 5 4 4 4 6 7 6 5 6 6 5 5 6 5 6 6 6 7 8 6 7 8 7 7 8 8 9 10 11 13 13 13
6 7 6 6 6 3 6 4 5 3 5 7 7 6 5 5 5 4 4 4 4 5 6 6 4 6 6 5 5 5 5 5 5 5 7 9 7 7 8 8 7 7 8 9 9 12 11 11 11
5 7 5 3 3 3 6 2 5 7 7 7 6 5 5 4 5 4 3 2 2 3 5 7 5 6 6 6 6 6 5 6 6 6 7 8 8 8 8 7 7 7 8 10 9 10 9 11 12
5 5 2 1 3 4 3 4 5 9 9 8 6 5 4 4 4 4 3 1 2 4 5 6 7 6 6 6 6 5 5 6 6 6 6 8 9 9 7 7 6 7 8 8 9 8 10 11 11
2 1 2 3 4 4 4 5 5 8 10 8 7 6 5 4 4 3 2 1 2 4 5 6 6 6 7 7 6 6 5 6 6 6 6 8 9 10 8 7 6 8 7 7 9 9 10 11 12
2 2 2 4 5 6 5 5 5 8 9 9 8 6 6 5 5 4 2 0 3 4 5 5 6 6 6 5 5 5 5 5 5 5 6 9 9 10 9 7 7 8 7 6 8 10 10 9 11
2 2 2 1 4 6 7 6 6 8 8 8 8 7 7 5 4 4 2 1 3 4 5 5 6 7 6 6 6 7 7 7 5 5 8 10 10 10 9 8 8 7 7 8 9 9 11 9 9
2 2 1 0 3 4 3 6 4 7 9 9 10 9 7 5 4 4 3 1 3 5 5 6 7 7 7 6 5 5 7 5 5 6 7 9 10 11 10 9 9 8 8 8 9 10 8 9 7
1 1 2 2 1 1 3 6 3 3 4 5 7 6 6 7 7 4 3 2 3 4 5 7 7 8 7 8 6 8 5 4 5 7 5 7 11 11 11 10 10 9 7 8 9 8 9 10 8
0 0 2 3 1 3 1 7 5 4 4 6 8 7 7 5 5 3 2 2 3 4 5 6 6 7 7 7 8 9 9 9 9 7 8 10 10 11 11 11 11 9 8 9 10 8 8 9 9
1 1 2 2 2 2 0 2 8 2 6 9 9 8 7 6 5 4 2 1 3 4 5 5 6 6 7 7 8 8 7 7 8 8 9 9 8 9 11 12 10 10 9 10 10 10 8 7 8
1 3 4 4 3 3 3 4 9 6 8 6 8 8 8 7 5 3 2 2 3 4 4 5 6 7 7 8 8 8 9 10 12 12 10 9 8 8 10 13 10 10 10 10 11 9 9 8 9
4 4 5 6 4 5 2 3 11 4 5 5 8 9 8 7 5 3 1 2 4 5 5 6 7 8 8 8 8 9 9 8 10 12 11 12 10 10 12 12 10 11 11 12 11 9 10 9 10
1 3 4 2 5 7 2 7 8 1 0 1 5 7 8 7 5 3 1 1 3 5 6 7 7 8 8 8 8 8 8 7 8 10 11 11 10 11 14 13 14 14 14 13 11 10 10 8 8
2 2 3 4 1 4 7 9 7 3 1 2 5 7 7 7 6 4 1 1 2 4 5 6 7 8 8 9 9 8 8 9 10 11 10 9 10 12 15 16 16 15 15 13 11 9 9 9 9
2 6 4 3 2 6 8 7 6 6 8 7 7 8 7 7 6 4 2 1 2 3 4 6 6 7 8 8 8 10 9 10 10 10 11 12 13 14 16 16 16 16 15 14 11 9 9 9 9
3 3 4 3 3 3 6 11 6 6 8 11 12 10 9 8 6 4 2 1 3 4 5 6 6 7 7 8 8 9 9 10 10 10 11 12 12 14 15 17 17 17 15 12 9 9 10 10 10
3 4 6 3 3 4 4 13 1 3 5 8 9 9 8 8 6 4 2 1 3 4 5 6 6 6 7 7 8 9 9 10 10 11 11 12 13 14 15 16 17 17 15 12 10 10 10 9 9
Wind_Direction
27 63 63 55 60 57 59 19 57 90 79 62 60 87 96 76 83 126 171 14 2 358 353 355 12 15 16 17 17 16 15 15 14 13 12 11 10 9 9 7 5 3 1 359 357 356 355 355 353
57 67 52 55 73 72 33 3 53 70 128 132 71 71 73 75 81 84 27 7 3 1 358 360 15 15 16 16 16 15 14 14 13 12 12 11 9 7 7 5 2 0 359 357 355 354 353 352 350
73 58 65 62 73 107 135 53 100 85 100 106 78 56 66 44 49 59 22 4 1 6 5 2 17 16 16 16 16 15 14 13 12 12 11 10 9 6 5 3 360 358 357 355 354 352 351 349 348
70 56 60 64 74 50 114 170 135 123 75 56 83 58 53 7 45 70 30 8 14 16 9 6 18 16 16 16 16 14 14 13 12 11 10 10 7 4 4 2 358 357 355 353 353 350 349 347 346
60 73 69 65 73 71 39 27 110 95 68 58 87 92 71 25 48 67 43 25 32 25 20 13 19 17 15 15 15 13 13 12 12 10 9 8 5 2 1 0 356 355 353 352 351 349 347 345 344
59 64 77 97 116 142 88 42 84 84 97 95 96 98 88 45 57 52 43 40 37 32 27 22 18 17 15 14 15 13 13 12 11 10 8 7 4 0 360 358 353 352 351 351 350 347 345 344 343
83 75 92 122 136 149 138 82 76 101 94 98 115 104 138 146 126 80 48 45 46 39 33 24 18 15 12 12 14 12 12 11 11 9 8 6 3 359 358 356 351 351 350 350 348 346 344 343 342
101 94 92 127 140 145 133 97 78 83 107 45 95 133 168 177 151 106 56 41 46 45 37 25 17 14 7 3 12 11 11 10 11 8 6 5 2 357 355 351 349 351 349 349 346 345 344 343 341
74 74 112 165 159 148 137 110 84 56 85 46 56 124 142 137 136 103 45 37 35 35 35 26 17 12 4 4 12 8 9 7 9 5 4 2 352 347 353 346 348 349 348 348 344 344 344 342 338
54 92 123 109 144 135 120 119 142 104 80 71 62 77 102 113 136 87 51 36 26 18 20 26 12 5 2 7 4 360 1 357 356 356 356 352 347 345 353 344 346 348 346 346 342 342 343 340 332
58 95 104 65 97 110 109 116 130 128 144 178 167 159 147 140 119 77 62 47 26 7 9 13 6 357 1 2 359 3 353 350 350 352 354 349 343 342 343 336 340 340 343 341 338 338 335 330 328
81 55 85 102 89 92 110 116 113 167 183 159 156 150 152 138 99 84 73 49 22 12 359 354 360 356 358 355 349 2 352 349 349 347 349 349 343 340 339 335 333 337 338 334 333 329 327 326 322
75 89 59 79 82 87 90 95 111 90 107 116 128 134 142 126 107 94 88 63 31 9 346 339 356 357 352 353 349 1 345 345 338 339 345 345 340 338 336 332 332 334 334 332 329 327 324 325 322
92 91 93 73 78 84 108 106 107 156 134 130 141 149 147 135 128 108 79 49 22 353 338 331 359 359 351 352 344 343 338 335 333 336 338 341 339 336 335 330 328 332 332 329 326 320 320 320 317
98 86 75 85 94 117 116 134 193 167 147 151 164 164 152 134 121 116 105 72 7 339 334 336 2 2 352 349 346 347 333 333 333 334 332 333 336 333 332 326 328 331 328 325 325 317 322 318 317
85 90 109 183 127 146 160 248 181 155 154 171 183 184 166 137 126 127 125 100 4 342 335 331 350 352 349 348 340 333 329 328 325 324 324 326 330 330 329 323 323 325 326 326 323 325 326 319 316
60 124 206 195 186 157 190 240 168 163 167 182 192 197 188 160 147 146 141 83 357 339 321 320 327 344 347 342 335 326 322 318 316 316 318 325 327 327 324 315 316 322 322 323 323 328 321 319 318
207 213 230 226 196 165 210 242 176 178 180 189 197 204 204 195 185 169 165 11 343 325 308 305 326 345 344 338 331 322 319 313 312 313 317 324 323 324 322 313 317 319 319 319 319 320 318 315 314
154 185 242 257 160 175 222 244 205 185 185 192 203 209 213 206 172 163 173 323 328 313 313 323 349 349 350 345 339 330 327 320 314 312 320 319 319 320 316 316 316 315 316 316 315 319 316 318 319
144 161 227 307 152 190 253 262 220 185 197 197 198 204 204 188 179 198 205 274 307 307 321 342 352 344 343 334 321 307 310 304 305 311 311 313 320 321 322 319 316 312 312 312 313 316 315 319 329
84 174 226 222 93 76 330 300 194 192 184 193 201 200 194 193 196 203 217 268 300 317 335 348 340 337 334 332 328 327 311 308 322 328 317 320 321 319 316 314 314 310 308 308 308 305 315 317 315
343 216 162 146 108 300 352 301 266 199 203 209 205 195 192 185 178 185 204 285 319 331 340 342 335 333 334 337 340 341 344 335 330 326 321 322 319 317 317 316 312 308 307 304 303 313 304 305 309
219 71 125 147 166 315 296 240 287 160 239 231 211 198 190 181 172 168 164 344 353 346 341 337 335 334 336 340 338 335 330 320 321 322 319 318 317 315 316 316 311 308 306 300 297 298 294 296 294
125 81 69 64 74 307 222 190 278 214 219 224 199 191 183 171 157 145 102 25 349 340 339 341 343 338 336 336 333 328 323 324 327 329 326 325 321 315 310 313 308 304 302 299 297 292 290 290 287
57 64 13 354 354 274 177 226 254 238 212 208 192 183 172 162 155 149 74 349 333 339 347 348 346 336 332 330 327 321 318 318 321 325 326 325 323 321 315 312 307 304 300 299 296 294 291 286 284
49 108 126 271 277 297 289 248 260 138 38 190 165 154 151 154 154 151 146 315 325 344 349 345 339 330 327 327 325 318 318 324 321 320 320 318 317 314 310 312 310 306 303 301 297 294 288 287 284
101 99 142 144 308 289 282 282 298 124 101 127 139 146 162 163 161 161 180 299 341 348 343 336 329 324 323 323 324 321 327 325 322 320 318 317 316 317 318 315 312 310 307 303 298 292 289 287 283
80 141 97 107 316 296 293 282 266 237 227 204 190 182 177 167 165 169 197 298 343 344 332 329 322 316 314 320 326 335 327 323 323 322 323 323 321 320 320 321 320 318 314 310 301 296 295 295 290
133 117 112 116 161 211 290 277 226 227 213 203 200 188 178 174 174 182 205 305 347 340 332 323 317 315 317 322 325 326 323 324 325 325 325 324 322 325 325 326 328 328 325 318 311 304 301 300 301
176 182 155 170 225 196 229 270 250 235 231 197 184 175 170 166 168 177 186 351 344 332 324 318 313 315 317 322 326 326 325 326 327 327 327 327 328 328 329 330 333 335 339 336 329 322 320 315 314